Showing default

DEORBITSAIL, 40719

Orbit data source: Space-Track

DEORBITSAIL, 40719 is a payload satellite owned by Surrey Space Ctr (UK) in SSO that was launched on Fri, 10 Jul 2015 UTC via a PSLV-XL launch vehicle from the Sirharikota (SRI). Payload-class satellites include a variety of spacecraft equipped with specific instruments for various scientific and technological missions. These include communications satellites like Starlink; space stations such as the ISS; scientific satellites like the Hubble; Earth observation satellites from companies like Planet Labs, Umbra, and HawkEye 360; GPS; miniature CubeSats for education and research; and military/defense satellites.

Loading next visibility...
Identifier
40719, 2015-032E
Orbit
SSO
Last TLE update
8 hours ago
Origin
Manufacturer
Surrey Space Ctr
Mission
Non-operational Amateur Technology
Bus & Motor
CUBESAT 3U, Unknown motor
Mass
7 kg wet, 7 kg dry
Launch date (UTC)
2015-07-10 (10 years ago)
Launch vehicle
PSLV-XL
Launch site
Sirharikota (SRI)
Object type
Payload
Rocket body
Debris
Shape & HBR
Box + 1 Sail, 7.1 m
Radar Cross Section
0.039 m², Small (<0.1 m²)

Expand to show TLE details & history

TLE from 8 hours ago
0 DEORBITSAIL
1 40719U 15032E   25132.58381388  .00006761  00000-0  59999-3 0  9993
2 40719  97.6459 352.8184 0012702 118.2141 242.0365 14.96431520531190
Epoch: 2025-05-12T14:00Z
Definitive object data (Epoch: 2025-05-12T14:00:41.519Z)
Latitude
0.00001°
Longitude
-87.9494°
Altitude
585.137 km
Speed
7.565 km/s
True Right ascension
23h 31m 16s
True Declination
0° 00' 00"
Sunlit
Object was in daylight at TLE epoch
Visualization TLE readout
Latitude
64.91918°
Longitude
-104.18552°
Altitude
583.577 km
Speed
7.578 km/s
Apparent Right ascension
20h 04m 51s
Apparent Declination
17° 31' 43"
Sunlit
Object is in daylight
Visualization observer readout
Local Sidereal Time
06:43:00
Azimuth
337.487° NNW
Elevation
-29.47°
Doppler factor
1
Orbital elements
Apogee altitude
583.772 km
Perigee altitude
566.109 km
Semi-major axis
6,953.078 km
Eccentricity
0.0012702
Inclination
97.6459°
RAAN
352.8184°
Arg. of periapsis
118.2141°
True anomaly
241.90804°
Mean anomaly
242.0365°
Eccentric anomaly
241.97226°
Mean motion
3.7435 °/min
BSTAR
0.00059999
Orbital period
96.17 mins
Loading maneuver chart data...
Loading SW <> Apogee altitude chart data...
Loading historical data...
Loading historical data...
Loading historical data...
Loading historical data...
Loading historical data...
Loading historical data...
Loading historical data...
Other satellites on launch #32 in the year 2015 (2015-07-10 UTC)

DEORBITSAIL Visibility forecast

Observer location: undefined°, undefined°

Span
Click to sort rows by Start time (UTC) header in descending order
Start Az.
Max El. time (UTC)
Max El. Az.
Max El.
End time (UTC)
End Az.
7 mins2025-05-13 03:24:44.204Z16.389° NNE2025-05-13 03:28:44.204Z151.158° SSE42.691°2025-05-13 03:31:44.204Z186.689° SSW
6 mins2025-05-13 14:13:44.204Z133.198° SE2025-05-13 14:15:44.204Z89.437° E32.704°2025-05-13 14:19:44.204Z3.697° NNE
|